Regional Weather Roundup
Issued by NWS Charleston, SC

Current Version | Previous Version | Text Only | Print | Product List | Glossary Off
Versions: 1 2 3 4 5 6 7 8 9 10 11 12 13 14 15 16 17 18 19 20 21 22 23 24 25 26 27 28 29 30 31 32 33 34 35 36 37 38 39 40 41 42 43 44 45 46 47 48 49 50

164
ASUS42 KCHS 302328
RWRCHS

REGIONAL WEATHER ROUNDUP
NATIONAL WEATHER SERVICE CHARLESTON SC
700 PM EDT SAT JUL 30 2016

NOTE: "FAIR" INDICATES FEW OR NO CLOUDS BELOW 12,000 FEET WITH NO
SIGNIFICANT WEATHER AND/OR OBSTRUCTIONS TO VISIBILITY.

NOT ALL STATIONS ARE QUALITY CONTROLLED. USE DATA WITH CAUTION...
ESPECIALLY DEWPOINT OBSERVATIONS.

SCZ027-030-031-034>040-042>050-310000-
...SOUTHEAST SOUTH CAROLINA...

CITY           SKY/WX    TMP DP  RH WIND       PRES   REMARKS
N CHARLESTON   MOSUNNY   92  73  53 S14       29.96R HX 100
WATERFRONT PRK   N/A     90  78  68 S9        29.94S HX 104
MOUNT PLEASANT FAIR      90  77  66 S9G16     29.97R HX 102
JOHNS ISLAND   FAIR      90  77  66 S15       29.97R HX 102
PINOPOLIS        N/A     95  73  49 SW7       29.85R HX 105
MONCKS CORNER  FAIR      90  68  48 SW7       29.95R HX  93
SUMMERVILLE    NOT AVBL
BEAUFORT MCAS  SUNNY     92  75  57 S7        29.96R HX 103
BEAUFORT ARPT  FAIR      88  75  66 S14G20    29.96R HX  97
HILTON HEAD IS MOSUNNY   93  75  55 S12G21    29.98S HX 104
WALTERBORO     PTCLDY    91  72  52 S7        29.97R HX  98
ALLENDALE      FAIR      93  72  49 CALM      29.96R HX 100

...SOUTHERN MIDLANDS AND PEE DEE...

CITY           SKY/WX    TMP DP  RH WIND       PRES   REMARKS
GEORGETOWN     FAIR      88  72  58 S9        29.96S HX  94
KINGSTREE      FAIR      91  68  46 CALM      29.93S HX  95
ORANGEBURG     SUNNY     93  71  48 W9        29.96R HX 100
BARNWELL       NOT AVBL
AIKEN          FAIR      88  68  51 SW7       30.02R HX  91
MANNING        FAIR      93  70  46 W5        29.95R HX  99
COLUMBIA       MOSUNNY   94  68  42 SW9       29.94R HX  98
SUMTER         SUNNY     92  73  53 W7        29.92S HAZE    HX 100
FLORENCE       LGT RAIN  80  75  84 N10       29.95R
MYRTLE BEACH   SUNNY     91  70  49 SW17      29.96S HX  97
N MYRTLE BEACH SUNNY     89  76  65 S13       29.95S HX 100

$$

GAZ063-065-086>088-099>101-113>116-118-119-134>141-150-310000-
...SOUTHEAST GEORGIA...

CITY           SKY/WX    TMP DP  RH WIND       PRES   REMARKS
SAVANNAH ARPT  MOSUNNY   93  71  48 S15       29.96R HX 100
HUNTER AAF     SUNNY     91  77  64 S8        29.95R HX 104
FORT STEWART   SUNNY     93  72  50 SE6       29.93R HX 101
STATESBORO     CLOUDY    84  79  86 CALM      29.97R HX  96
SYLVANIA       NOT AVBL
CLAXTON        CLOUDY    91  72  54 W7        29.96R HX  98

...CSRA...CENTRAL AND FAR SOUTHEAST GEORGIA...

CITY           SKY/WX    TMP DP  RH WIND       PRES   REMARKS
THOMSON        NOT AVBL
AUGUSTA-BUSH   TSTM      77  70  79 W32G41    30.01R
AUGUSTA-DANIEL TSTM      75  70  84 SW8       30.03R
SWAINSBORO     FAIR      91  68  46 NW9       29.99R HX  95
VIDALIA        PTSUNNY   91  70  49 NW5       29.98S HX  97
EASTMAN        FAIR      91  59  34 CALM      30.01S HX  90
HAZLEHURST     FAIR      95  71  45 CALM      29.96S HX 102
ALMA           SUNNY     97  66  36 S6        29.96R HX 100
WAYCROSS       SUNNY    100  72  40 SW7       29.97R HX 109
JESUP          FAIR      93  79  62 S7        29.97R HX 110
BAXLEY         FAIR      97  72  44 SW3       29.96R HX 105
BRUNSWICK      CLOUDY    90  77  66 S13       30.00R HX 102
SAINT SIMONS   MOSUNNY   88  76  67 S13G22    29.98F HX  99

$$

SCZ027-028-034-036>038-045-046-048>050-GAZ119-141-310000-
...LAKE AND SUPPLEMENTAL COASTAL OBSERVATIONS...

STATION/POSITION TIME  TEMP    WIND        PRES    WAVE   SWELL
                       AIR SEA DIR/SP/G            HT/PER HT/PER/DIR
                 (UTC) (F)     (DEG/KT/KT) (MB)    (FT/S) (FT/S/D)
WINYAH BAY       2200   91     200/ 11     1014.0S
LAKE MURRAY      2300   91     260/  6/  8 1013.5R
ACE BASIN NERRS  2200   91     160/  1     1014.0S
FORT PULASKI     2200   89 88                N/A
SAPELO ISLAND    2300   89     160/ 14     1015.0S

$$

ANZ835-935-AMZ111-154-330-350-352-354-370-450-454-472-310000-
...C-MAN AND BUOY OBSERVATIONS...

STATION/POSITION TIME  TEMP    WIND        PRES    WAVE   SWELL
                       AIR SEA DIR/SP/G            HT/PER HT/PER/DIR
                 (UTC) (F)     (DEG/KT/KT) (MB)    (FT/S) (FT/S/D)
BUOY 41004       2250   86 86  200/ 14/ 16 1014.5S   2/ 5   2/150/ 8
BUOY 41008       2250   87 87  160/ 16/ 19 1014.7F   2/ 3   2/110/ 8
FOLLY BEACH CMAN 2300   87     190/ 17/ 18 1014.9F
CAPERS NEARSHORE 2308   86 86  210/ 16/ 19 1014.2F
FRIPP NEARSHORE  2308   87 88  190/ 17/ 21 1014.2R


STATION/POSITION TIME  TEMP    WIND        PRES    WAVE   SWELL
                       AIR SEA DIR/SP/G            HT/PER HT/PER/DIR
                 (UTC) (F)     (DEG/KT/KT) (MB)    (FT/S) (FT/S/D)
5E ST. MARYS GA  2301      86                N/A     2/ 3
FRYING PAN BUOY  2300   86 86  200/ 12/ 16 1014.5S
BUOY 41025       2250   84 85  190/ 14/ 17 1014.7S   3/ 6   2/230/ 6
CAPE LOOKOUT NC  2300   85     200/ 13/ 16 1014.0R
BUOY 41002       2250   85 86  170/  8/ 10 1017.5R   2/ 5   2/240/ 5
BUOY 41010       2220   86 90  100/  4/  6 1017.3R
ST AUGUSTINE FL  2300   84 85  150/ 11/ 13 1016.8F


$$




USA.gov is the U.S. government's official web portal to all federal, state and local government web resources and services.